Location: Iesi
(43.5167°N, 13.2333°E)
Time: 17:10:16
(UTC+00:00)

Cosmos 44 - Pass Details

Date: 08 August 2020
Orbit: 583 x 779 km, 65.1° (Epoch: 23 September)

Event Time Altitude Azimuth Distance (km) Brightness Sun altitude
Rises 21:15:35 0° 332° (NNW) 3,028 8.0 -24.9°
Reaches altitude 10° 21:18:02 10° 341° (NNW) 2,144 6.8 -25.1°
Maximum altitude 21:22:32 35° 48° (NE) 1,144 4.4 -25.5°
Enters shadow 21:23:10 34° 64° (ENE) 1,177 4.4 -25.6°
